7 * 24
多渠道服务支持
STARLINK-35681是美国于2025年11月8日发射的星链卫星,星链是SpaceX打造的大型卫星互联网星座项目,旨在为全球提供高速低延迟宽带互联网服务,该卫星入轨后将进一步扩充星链星座的规模,提升全球尤其是偏远地区的网络覆盖能力与服务稳定性。
美国
(US)
| 数据来源 | 国际轨道数据 |
| 星历时间: | 2026-09-12T00:17:32+0800 9小时前 查看轨道信息 |
| 半长轴: | 6840.852km |
| 偏心率: | 0.0001323 |
| 轨道倾角: | 53.160° |
| 近地点辐角 | 110.204° |
| 升交点赤经 | 70.683° |
| 平近点角 | 249.911° |
| 近地点: | 461.809km |
| 远地点: | 463.621km |
| 周期: | 93.848分钟 |
| 每日圈数: | 15.343963 |